CAPE
24 56 159 132 111 101 44 8 0 0 0 0 0 0 0 0 42 180 204 394 561 676 679 739 820 819 999 1114 1101 961 1051 939 541 681 543 430 352 292 66 337 241 281 598
2 33 162 178 172 146 84 67 0 0 0 54 226 324 329 409 471 437 323 350 453 655 1032 1198 985 769 985 1141 1086 1041 1036 601 318 286 341 420 320 256 76 95 193 137 85
0 0 0 36 125 169 219 172 146 62 112 398 369 362 287 349 565 550 543 581 395 436 640 1383 1133 693 237 734 755 759 313 734 230 158 231 237 186 149 207 66 82 126 75
0 0 0 0 0 71 155 162 291 446 380 466 442 459 342 492 544 506 506 518 405 442 346 612 923 600 293 574 651 552 618 416 469 293 129 222 68 216 168 106 61 85 48
0 0 0 0 0 73 257 336 319 396 385 534 650 477 452 224 154 101 87 236 421 538 441 520 860 1234 748 632 591 756 885 1053 632 406 254 125 5 8 296 150 72 25 42
0 0 0 0 0 22 161 314 314 309 467 634 555 449 171 32 0 40 89 333 537 653 656 625 537 592 750 862 912 1017 898 1089 961 550 404 269 117 105 317 127 75 51 45
0 0 0 0 0 18 80 314 399 458 404 626 405 193 99 44 35 38 44 1 0 51 279 451 507 458 488 551 797 882 911 703 658 528 472 320 144 280 312 34 21 144 31
0 0 0 0 0 13 154 348 552 635 658 626 490 224 114 52 89 24 0 0 51 0 21 172 327 479 530 630 684 735 851 600 505 356 304 147 171 71 301 160 22 102 144
0 0 0 0 46 264 490 546 649 658 499 562 461 241 177 115 183 78 106 13 89 8 0 49 177 376 721 804 844 855 907 825 752 522 410 357 406 400 314 266 113 57 190
0 0 0 39 232 430 588 465 821 825 746 612 524 440 290 266 188 135 170 61 120 10 33 410 626 706 796 839 967 1013 919 1028 914 420 432 817 544 510 543 433 350 251 207
0 0 58 204 427 472 285 167 4 84 607 347 318 465 236 186 213 255 105 177 183 1 0 83 149 317 800 1137 929 795 871 869 667 179 138 0 95 383 905 674 578 509 428
91 89 261 528 188 42 94 2 85 85 175 541 595 606 458 401 302 248 253 255 172 70 14 27 56 105 608 616 527 732 744 517 408 322 471 589 253 330 752 1102 825 805 697
228 434 125 87 0 11 0 0 152 405 496 478 481 372 335 341 363 333 295 263 172 108 43 10 42 53 246 410 688 629 310 256 236 231 268 417 547 630 564 1050 1137 872 921
599 488 117 31 0 78 148 250 406 435 333 313 295 245 223 221 216 200 250 227 247 119 67 73 2 33 159 505 408 90 0 1 2 3 16 43 140 381 420 350 652 914 906
797 660 552 419 273 624 519 276 93 10 0 0 0 16 15 0 19 81 94 108 174 209 202 67 210 3 0 61 0 0 0 0 0 0 0 0 0 52 209 270 259 386 587
559 529 413 256 209 146 23 0 0 0 0 0 0 0 0 0 0 0 0 9 43 161 284 115 0 0 0 0 0 0 0 0 0 0 0 0 0 0 0 0 0 38 88
117 62 38 13 1 0 0 0 0 0 0 0 0 0 0 0 0 0 0 0 0 7 65 2 0 0 0 0 0 0 0 0 0 0 0 0 0 0 0 0 0 0 0
0 0 0 0 0 0 0 0 0 0 0 0 0 0 0 0 0 0 0 0 0 0 1 0 0 0 0 0 0 0 0 0 0 0 0 0 0 0 0 0 0 0 0
0 0 0 0 0 0 0 0 0 0 0 0 0 0 0 0 0 0 0 0 0 0 0 0 0 0 0 0 0 0 0 0 0 0 0 0 0 0 0 0 0 0 0
0 0 0 0 0 0 0 0 0 0 0 0 0 0 0 0 0 0 0 0 0 0 0 0 0 0 0 0 0 0 0 0 0 0 0 0 0 0 0 0 0 0 0
0 0 0 0 0 0 0 0 0 0 0 0 0 0 0 0 0 0 0 0 0 0 0 0 0 0 0 0 0 0 0 0 0 0 0 0 0 0 0 0 0 0 0
0 0 0 0 0 0 0 0 0 0 0 0 0 0 0 0 0 0 0 0 0 0 0 0 0 0 0 0 0 0 0 0 0 0 0 0 0 0 0 0 0 0 0
0 0 0 0 0 0 0 0 0 0 0 0 0 0 0 0 0 0 0 0 0 0 0 0 0 0 0 0 0 0 0 0 0 0 0 0 0 0 43 18 0 0 0
0 0 0 0 0 0 0 0 0 0 0 0 0 0 0 0 0 0 0 0 0 0 0 0 0 0 0 0 0 0 0 0 0 0 0 0 0 0 2 10 0 0 0
0 0 0 0 0 0 0 0 0 0 0 0 0 0 0 0 0 0 0 0 0 0 0 0 0 0 0 0 0 0 0 0 0 0 1 2 0 0 0 0 0 0 0
0 0 0 0 0 0 0 0 0 0 0 0 0 0 0 0 0 0 0 0 0 0 0 0 0 0 0 0 0 0 0 0 0 0 0 0 0 0 1 0 3 5 1
CIN
-69 -90 -61 -70 -74 -95 -105 -42 0 0 0 0 0 -25 0 0 -93 -71 -77 -72 -81 -80 -77 -65 -50 -30 -13 -4 0 0 0 0 -1 0 0 -2 -3 -8 -15 -2 -9 -3 -2
-123 -99 -63 -68 -74 -98 -111 -105 0 0 0 -30 -58 -56 -54 -56 -51 -54 -71 -90 -84 -88 -77 -65 -48 -48 -38 -26 -15 -7 0 -3 -27 -27 -8 -2 -5 -6 -16 -12 -4 -4 -10
0 0 0 -47 -81 -83 -71 -69 -67 -81 -67 -50 -52 -60 -66 -62 -49 -58 -59 -83 -93 -97 -99 -62 -51 -46 -57 -21 -30 -25 -29 -2 -11 -12 -3 -2 -6 -6 -3 -12 -6 -2 -5
0 0 0 0 0 -77 -72 -71 -51 -39 -39 -42 -54 -54 -71 -63 -56 -82 -81 -85 -100 -109 -107 -72 -33 -36 -43 -19 -21 -25 -21 -10 -7 -7 -23 -3 -34 -1 -4 -6 -11 -9 -5
0 0 0 0 0 -79 -58 -52 -45 -50 -48 -39 -48 -54 -68 -83 -108 -127 -138 -106 -113 -124 -117 -102 -78 -49 -46 -27 -18 -33 -18 -1 -14 -8 -15 -29 -34 -19 0 -4 -7 -12 -8
0 0 0 0 0 -97 -60 -56 -53 -60 -54 -50 -59 -54 -82 -108 0 -119 -106 -100 -112 -112 -123 -119 -113 -112 -91 -61 -47 -37 -36 -7 -1 -3 -5 -1 -11 -8 0 -5 -4 -8 -14
0 0 0 0 0 -147 -85 -55 -52 -56 -62 -57 -79 -76 -92 -112 -112 -104 -129 -33 -1 -166 -141 -144 -134 -136 -128 -102 -80 -65 -46 -17 -5 -6 -7 -2 -2 -4 0 -53 -42 0 -10
0 0 0 0 0 -40 -88 -52 -35 -56 -60 -55 -54 -98 -82 -71 -83 -133 0 0 -115 0 -101 -118 -136 -132 -121 -129 -107 -103 -70 -10 -10 -6 -7 -14 -5 -76 -2 -16 -55 -10 -2
0 0 0 0 -130 -85 -57 -46 -52 -55 -56 -59 -60 -61 -58 -76 -99 -112 -81 -68 -89 -37 0 -131 -128 -145 -133 -118 -103 -92 -67 -38 -19 -7 -11 -13 -6 -9 -17 -20 -17 -41 0
0 0 0 -126 -95 -78 -53 -66 -47 -41 -56 -46 -55 -46 -56 -84 -84 -100 -110 -83 -73 -52 -55 -90 -101 -115 -119 -127 -111 -85 -68 -51 -43 -50 -43 -22 -32 -20 -9 -10 -15 -32 -13
0 -14 -120 -114 -101 -77 -97 -117 -232 -156 -48 -101 -74 -51 -75 -90 -111 -38 -78 -60 -57 -4 0 -129 -129 -127 -106 -80 -91 -81 -81 -74 -81 -117 -135 0 -134 -65 -20 -27 -16 -22 -23
-75 -112 -118 -105 -135 -215 -167 -262 -157 -156 -109 -63 -56 -59 -50 -30 -25 -21 -27 -31 -38 -76 -158 -188 -161 -174 -130 -115 -110 -89 -98 -117 -113 -115 -92 -74 -117 -94 -39 -8 -11 -6 -12
-101 -88 -144 -153 0 -134 0 0 -127 -78 -56 -63 -70 -72 -72 -34 -25 -25 -26 -14 -43 -90 -165 -251 -197 -215 -145 -136 -96 -110 -178 -164 -144 -144 -127 -97 -80 -63 -48 -16 -6 -10 -5
-91 -95 -160 -198 0 -179 -143 -105 -57 -41 -52 -71 -70 -83 -75 -76 -67 -63 -38 -37 -30 -90 -178 -180 -31 -225 -158 -103 -125 -204 0 -32 -30 -26 -230 -184 -150 -106 -89 -83 -48 -15 -9
-80 -90 -105 -114 -127 -54 -57 -87 -79 -106 0 0 -14 -203 -219 -20 -203 -116 -105 -107 -72 -46 -54 -193 -85 -146 0 -150 0 0 0 0 0 0 0 0 0 -135 -119 -97 -89 -77 -49
-104 -98 -111 -122 -112 -109 -52 0 0 0 0 0 0 0 0 0 0 0 0 -133 -168 -83 -27 -155 0 0 0 0 0 0 0 0 0 0 0 0 0 0 0 0 0 -91 -145
-189 -218 -302 -289 -95 0 0 0 0 0 0 0 0 0 0 0 0 0 0 0 0 -157 -186 -13 0 0 0 0 0 0 0 0 0 0 0 0 0 0 0 0 0 0 0
0 0 0 0 0 0 0 0 0 0 0 0 0 0 0 0 0 0 0 0 0 0 -3 -1 0 0 0 0 0 0 0 0 0 0 0 0 0 0 0 0 0 0 0
0 0 0 0 0 0 0 0 0 0 0 0 0 0 0 0 0 0 0 0 0 0 0 0 0 0 0 0 0 0 0 0 0 0 0 0 0 0 0 0 0 0 0
0 0 0 0 0 0 0 0 0 0 0 0 0 0 0 0 0 0 0 0 0 0 0 0 0 0 0 0 0 0 0 0 0 0 0 0 0 0 0 0 0 0 0
0 0 0 0 0 0 0 0 0 0 0 0 0 0 0 0 0 0 0 0 0 0 0 0 0 0 0 0 0 0 0 0 0 0 0 0 0 0 0 0 0 0 0
0 0 0 0 0 0 0 0 0 0 0 0 0 0 0 0 0 0 0 0 0 0 0 0 0 0 0 0 0 0 0 0 0 0 0 0 0 0 -1 -1 0 0 0
0 0 0 0 0 0 0 0 0 0 0 0 0 0 0 0 0 0 0 0 0 0 0 0 0 0 0 0 0 0 0 0 0 0 0 0 0 0 -16 -12 0 0 0
0 0 0 0 0 0 0 0 0 0 0 0 0 0 0 0 0 0 0 0 0 0 0 0 0 0 0 0 0 0 0 0 0 0 0 0 0 0 -15 -27 0 0 0
0 0 0 0 0 0 0 0 0 0 0 0 0 0 0 0 0 0 0 0 0 0 0 0 0 0 0 0 0 0 0 0 0 0 -9 -38 0 0 0 0 0 0 0
0 0 0 0 0 0 0 0 0 0 0 0 0 0 0 0 0 0 0 0 0 0 0 0 0 0 0 0 0 0 0 0 0 0 0 -2 -1 0 -19 -4 -65 -66 -11
Wind_Speed
10 11 14 15 17 17 17 16 16 16 17 18 19 17 13 12 11 12 11 12 6 8 8 8 4 3 4 2 7 10 8 13 12 11 14 14 12 10 10 12 13 13 10
10 10 12 14 15 17 17 16 16 16 15 16 19 22 16 5 7 4 4 8 9 3 7 7 9 9 8 6 9 7 11 7 5 9 10 9 10 13 11 12 14 13 7
11 12 14 15 16 17 17 17 17 16 15 20 19 14 11 8 2 5 3 5 1 2 1 8 10 8 7 8 11 11 11 11 12 14 13 9 13 13 9 11 14 9 10
15 15 16 17 18 18 19 18 21 20 20 19 15 21 22 21 17 6 3 2 3 4 5 3 7 6 6 7 9 8 11 15 12 12 17 9 12 10 17 17 12 11 13
17 18 19 19 19 20 20 21 20 3 24 24 26 25 27 15 16 22 23 18 10 9 8 10 5 3 1 4 7 7 6 8 8 5 9 15 11 14 18 24 13 13 11
20 21 21 21 21 22 23 24 25 25 20 19 27 26 12 19 20 26 23 21 19 14 15 18 18 11 2 4 4 6 8 4 6 7 9 8 14 19 12 5 12 9 11
24 23 23 23 24 25 25 25 23 24 24 22 22 27 22 20 20 26 24 23 25 19 12 11 14 18 11 2 6 7 9 12 13 9 13 11 5 19 15 4 12 17 13
27 25 25 25 26 27 26 24 21 20 20 21 22 23 24 23 23 24 22 23 28 26 25 18 4 2 3 6 7 3 9 19 16 13 15 20 12 14 8 4 4 7 11
28 26 25 26 27 25 25 19 16 17 21 21 21 22 22 21 29 20 23 24 30 28 29 29 11 4 3 3 5 6 7 19 21 16 8 11 7 5 8 6 4 4 15
27 27 27 27 27 25 10 18 18 18 18 20 22 19 19 19 22 21 21 23 29 27 29 27 25 21 8 8 9 5 10 18 24 28 27 22 20 12 4 3 3 4 7
27 27 26 26 24 14 18 18 21 19 18 19 21 21 13 14 17 16 21 26 27 24 25 25 25 22 20 18 19 21 24 24 25 26 28 26 24 24 18 8 5 5 6
23 23 21 9 12 16 15 17 20 15 14 15 14 14 15 16 17 17 17 19 19 20 21 25 26 26 23 22 22 23 24 25 26 27 29 26 22 25 26 13 10 7 6
22 19 16 16 9 11 14 11 18 13 14 17 17 17 16 16 16 17 18 19 19 16 16 18 26 27 26 25 23 23 26 27 28 28 27 27 27 27 26 23 16 14 16
17 17 16 12 9 9 13 16 18 18 18 19 20 19 19 19 19 19 18 18 20 18 18 20 20 27 26 25 25 24 26 27 28 29 29 29 29 28 28 27 25 23 21
16 15 15 12 14 16 17 18 19 19 20 20 21 20 20 21 21 20 19 18 17 18 19 21 23 27 26 25 26 24 26 28 28 29 29 30 30 28 27 27 27 27 27
14 13 17 18 18 18 18 19 20 20 21 21 21 21 21 21 21 21 21 21 20 16 16 22 25 25 26 25 25 25 26 27 30 30 30 30 30 29 28 27 26 26 26
16 17 18 19 19 19 19 20 20 21 22 22 22 22 23 23 23 23 22 21 21 18 18 21 24 25 25 25 26 25 25 27 28 30 30 29 29 28 28 28 27 27 26
17 18 19 20 20 20 20 21 21 22 22 23 23 24 24 23 24 25 25 25 24 23 19 21 23 24 25 25 25 26 25 25 27 29 29 29 29 29 28 28 28 27 27
18 19 20 20 20 21 21 21 22 22 23 23 24 24 25 25 25 25 26 26 25 25 24 22 22 23 24 27 25 25 26 24 27 29 28 28 28 28 27 28 28 28 28
18 19 20 21 21 21 22 22 22 23 23 23 23 24 25 26 26 26 26 26 26 26 25 25 26 26 25 25 26 27 27 25 26 29 26 28 28 27 27 28 29 29 28
18 19 20 21 22 21 21 22 22 22 22 23 23 23 24 25 26 25 26 26 26 26 26 26 27 28 29 29 31 28 27 25 23 30 25 28 29 28 27 27 28 29 30
19 19 20 21 22 22 22 22 22 22 22 22 23 23 23 24 24 25 25 26 26 27 28 27 28 28 29 28 28 29 30 30 28 28 26 27 28 28 25 26 28 29 30
18 19 19 20 21 22 22 22 22 22 22 23 23 24 24 23 22 23 24 25 26 26 25 25 27 27 27 27 28 29 29 27 26 26 26 26 28 26 24 25 29 31 32
18 18 19 21 21 21 22 22 22 22 23 23 24 24 25 24 23 21 22 24 25 26 27 25 25 24 23 24 25 25 26 26 24 22 27 25 24 24 22 24 27 31 33
18 18 19 20 21 21 21 22 23 23 23 23 22 22 22 23 23 24 24 24 25 27 26 26 27 28 28 28 29 28 31 32 30 27 24 27 24 24 21 23 28 31 34
18 18 19 18 19 20 21 21 22 22 22 21 21 21 21 21 21 22 24 24 26 26 26 26 27 27 28 30 32 31 29 31 30 28 25 28 25 25 23 21 27 30 33
Wind_Direction
277 284 268 261 238 230 215 218 224 231 242 249 255 249 232 230 226 223 219 220 203 199 193 191 162 138 155 132 178 192 192 193 190 189 193 193 190 190 192 190 180 179 176
286 302 296 297 284 266 248 238 237 242 236 245 261 275 250 213 215 199 189 221 217 189 199 201 199 191 186 188 197 191 201 205 195 197 196 201 203 198 197 195 188 183 207
285 287 292 296 294 285 273 256 264 255 243 266 259 245 238 41 76 38 174 202 141 58 81 202 214 214 211 205 204 210 212 210 204 205 204 198 200 204 211 199 190 196 197
259 275 277 289 281 279 266 260 278 271 273 266 252 271 274 270 252 46 71 145 132 75 103 78 210 201 206 216 214 209 215 218 212 210 211 202 206 209 199 195 194 196 194
274 268 269 274 273 282 293 291 265 116 297 288 297 290 310 267 27 360 350 8 39 41 37 27 42 55 93 220 199 214 230 222 233 242 218 207 205 202 195 202 191 193 201
265 264 275 271 282 295 297 310 291 299 1 342 333 345 34 14 16 355 4 9 11 22 10 357 357 16 120 192 198 219 228 266 262 246 233 242 203 198 187 215 200 210 200
250 268 270 267 277 291 298 307 336 332 338 2 7 350 2 3 1 344 1 9 4 19 34 21 5 354 9 49 212 227 232 241 237 242 238 246 199 195 194 271 299 201 200
243 257 259 259 264 293 303 320 338 347 351 357 359 360 354 354 345 352 4 5 347 355 350 7 55 116 59 29 11 232 234 251 246 244 245 328 333 199 206 253 264 230 279
234 242 247 257 280 303 310 337 356 356 345 353 0 359 355 354 336 358 353 358 338 346 339 332 23 77 88 172 197 207 224 259 267 294 256 238 28 187 199 196 235 291 201
231 245 255 267 279 300 14 351 354 354 357 353 352 359 358 357 357 0 5 3 318 345 340 348 352 0 84 96 92 143 242 266 295 326 338 356 353 4 1 207 220 219 204
242 247 251 258 265 2 346 348 344 349 352 352 350 350 38 26 10 10 2 353 345 8 8 9 5 10 16 31 22 15 2 1 1 357 339 344 342 338 347 349 318 293 241
244 243 227 323 27 11 12 3 356 7 7 9 23 23 19 15 12 16 13 14 17 18 15 5 0 360 6 9 4 356 351 357 2 356 352 356 359 346 337 354 344 328 305
243 242 187 198 132 60 40 48 21 35 27 15 17 19 20 19 22 18 17 16 16 34 38 32 4 356 355 359 3 2 352 354 354 354 354 352 351 346 341 341 346 340 331
217 213 199 170 81 59 33 25 14 15 13 10 7 7 9 8 10 11 16 18 12 19 23 18 16 355 2 6 8 7 4 2 0 358 355 351 345 340 337 334 331 329 329
200 231 235 76 42 28 22 22 17 14 8 6 8 9 8 4 8 13 15 17 24 20 18 8 358 349 357 2 2 5 3 0 1 359 358 354 349 345 341 335 330 327 323
197 102 38 32 37 29 28 29 27 21 19 17 15 11 7 5 7 9 10 11 15 27 22 2 356 356 357 3 2 4 3 2 357 355 354 354 354 354 350 345 341 336 329
90 52 39 34 47 50 47 40 43 39 31 21 15 16 15 15 14 12 12 12 11 18 17 13 9 7 9 7 6 8 7 4 2 358 359 357 355 353 353 351 346 341 337
87 59 55 55 56 52 48 49 48 46 43 38 35 33 31 27 18 15 15 15 14 14 20 10 11 9 12 13 13 9 9 8 3 1 359 357 355 354 353 352 350 348 346
57 61 61 57 56 55 54 54 55 56 53 49 43 39 35 31 27 25 22 22 25 26 27 30 24 22 20 16 18 20 16 18 14 8 7 4 0 357 354 350 346 342 338
70 61 62 67 65 63 62 67 64 60 56 51 48 43 38 35 33 31 29 28 28 29 29 28 23 19 24 26 24 17 14 17 14 7 8 5 3 359 354 350 347 345 343
63 66 68 69 72 70 75 70 68 65 63 58 53 49 43 33 30 31 29 27 30 31 28 24 17 16 14 14 12 19 16 17 19 10 10 5 360 357 355 353 351 347 342
71 69 69 68 66 70 72 72 71 70 72 68 58 50 43 40 41 39 38 35 33 29 27 26 23 20 19 21 21 18 14 13 11 14 13 11 8 4 2 358 351 347 343
79 70 66 67 70 72 69 71 72 73 71 66 59 52 49 50 50 48 42 36 32 30 31 31 22 21 19 20 19 15 14 16 15 16 13 10 10 10 8 2 356 350 344
82 78 76 78 76 77 74 74 74 70 67 63 60 58 51 48 47 46 43 35 32 28 24 27 27 25 24 20 19 19 17 14 15 18 15 9 13 11 13 10 360 352 345
86 89 94 88 81 77 77 75 74 73 70 63 63 59 53 48 48 47 37 31 27 24 28 28 27 23 21 20 17 15 8 6 5 8 16 8 9 6 7 2 356 351 347
94 97 98 99 91 78 79 72 69 69 64 62 58 55 52 51 49 41 33 26 19 20 23 23 22 23 22 19 16 17 14 7 6 8 14 7 7 7 3 2 354 352 347